RH
72 71 71 69 66 65 64 62 59 59 62 60 60 65 68 69 66 59 56 57 56 55 57 57 53 49 50 55 54 50 50 48 46 49 48 44 39 35 37 40 39 36
70 71 70 67 67 67 64 61 60 60 61 61 62 65 66 67 66 61 57 55 54 55 57 55 52 51 53 58 56 51 53 53 48 48 50 47 42 35 36 41 41 39
67 68 67 64 64 63 62 64 65 61 59 61 63 63 62 63 64 62 59 56 55 54 54 54 52 51 54 59 56 50 53 55 53 55 54 51 47 39 36 39 40 40
64 63 61 61 60 61 62 63 61 58 58 61 61 63 65 65 64 62 61 62 59 55 54 55 53 52 55 60 56 51 52 51 55 60 57 52 50 44 39 40 42 43
62 61 59 60 61 62 60 56 55 55 58 59 60 63 68 68 63 59 62 64 60 57 55 52 50 52 57 60 57 55 54 49 51 56 52 50 50 44 41 43 45 46
60 62 61 61 61 60 55 52 54 55 54 56 59 62 67 68 64 63 66 64 58 55 52 49 52 53 56 58 57 57 55 48 48 50 44 43 47 44 42 45 47 47
56 59 61 60 60 59 55 52 55 55 54 56 60 65 68 69 68 68 69 63 57 54 51 55 62 60 56 55 53 56 56 45 41 42 38 40 46 47 44 45 49 50
60 61 62 62 61 58 53 52 53 56 57 57 62 68 69 68 66 65 64 60 58 58 55 59 64 61 56 54 55 58 53 40 35 36 35 37 45 48 45 46 51 52
64 64 64 66 64 58 53 52 54 59 61 61 63 65 66 65 62 61 64 64 64 64 61 60 60 57 55 57 60 59 49 41 42 41 38 38 42 45 45 47 50 51
66 66 67 69 66 60 58 58 59 63 66 65 64 63 62 63 64 66 69 69 65 63 61 60 59 58 60 60 59 55 51 51 53 50 47 46 46 47 48 50 52 52
69 70 71 71 65 59 61 66 67 69 71 68 66 66 65 67 69 69 69 65 60 58 59 59 59 61 62 59 54 53 54 55 57 55 51 49 50 52 53 55 56 52
71 71 70 68 64 62 68 75 76 75 75 73 71 71 71 71 72 69 65 61 58 57 58 60 61 64 62 57 53 54 54 53 52 52 50 48 51 55 56 58 60 56
71 71 70 69 71 75 78 81 82 81 81 81 78 75 73 71 71 68 63 60 60 60 60 63 66 65 62 59 57 57 57 54 52 51 48 46 46 48 51 56 60 59
71 72 76 78 80 83 82 82 85 86 85 85 83 78 73 68 64 62 59 59 62 62 61 61 59 57 58 60 62 61 57 52 50 49 48 49 49 46 49 57 60 57
79 81 84 87 87 87 86 86 88 88 85 85 83 79 75 70 64 62 60 59 60 59 56 53 51 53 57 59 59 59 56 50 48 52 57 59 57 52 53 61 61 56
91 88 83 82 82 83 86 90 91 89 85 85 83 79 76 73 68 65 62 61 60 57 53 49 51 58 61 58 53 49 51 52 53 58 61 57 56 56 56 60 60 57
93 89 82 78 79 83 89 95 96 91 85 84 82 78 74 71 68 65 64 62 59 56 52 50 57 64 64 63 55 41 43 53 57 59 58 54 57 63 61 62 63 63
91 92 90 86 85 87 85 87 93 94 89 85 81 77 72 68 66 65 62 59 56 54 51 54 64 69 67 68 60 41 41 54 60 57 53 54 63 68 66 67 68 69
92 95 95 91 91 89 80 79 89 95 93 86 79 75 70 67 66 65 60 56 54 51 50 58 69 69 68 72 61 43 45 58 60 54 49 54 66 70 70 71 72 76
94 96 95 93 93 88 82 85 92 95 94 88 79 74 71 68 64 62 59 56 52 51 54 63 70 66 68 74 61 44 51 60 56 50 49 55 67 72 71 73 75 81
94 97 96 96 96 91 87 92 95 96 96 90 80 74 71 66 60 58 59 55 52 53 57 62 65 62 69 76 60 45 54 61 53 49 50 56 66 72 73 75 79 84
93 95 94 94 96 95 95 96 96 96 95 88 80 74 69 64 59 58 56 52 52 54 56 61 63 62 70 74 57 45 54 59 52 50 52 57 65 71 75 77 80 84
91 94 93 93 96 96 94 95 95 94 91 85 79 73 68 63 60 57 53 51 53 52 54 62 66 65 71 69 52 47 56 58 53 53 56 59 64 71 74 76 80 84
90 93 92 92 94 94 93 94 94 92 87 82 77 72 69 65 61 58 55 54 56 54 54 61 65 70 74 64 49 50 59 60 56 54 56 59 63 69 70 71 77 83
90 93 92 90 89 92 94 93 92 87 82 79 76 71 68 65 59 56 55 57 61 61 61 61 64 74 76 60 47 50 57 62 62 56 55 61 63 65 67 68 72 79
90 90 92 90 88 91 95 92 87 82 78 77 73 66 63 62 56 52 54 59 63 66 67 66 68 76 75 56 46 51 55 60 65 61 57 61 64 62 64 68 72 76
Wind_Speed
2 3 4 4 4 4 4 3 2 2 2 2 3 4 4 5 5 4 5 6 6 6 6 7 7 8 9 9 9 10 10 9 8 8 9 9 9 9 8 7 7 6
3 3 3 4 4 4 3 2 2 2 1 2 3 3 4 4 4 4 4 5 5 5 5 6 7 7 9 9 9 11 10 9 10 9 8 9 9 9 8 6 6 6
4 4 4 4 4 3 3 3 1 1 1 2 3 3 3 4 4 4 4 4 3 4 4 5 6 6 8 8 9 11 10 9 10 10 9 8 8 8 8 6 5 6
4 4 3 3 3 3 2 1 1 1 1 2 2 3 3 3 3 5 5 4 3 3 3 4 5 6 7 8 9 11 11 9 9 10 10 9 7 7 7 6 5 6
3 2 2 1 1 1 1 0 1 1 1 1 1 2 3 3 4 5 4 2 2 2 2 3 5 6 7 8 9 11 12 10 9 11 11 9 7 6 6 5 4 5
2 2 1 1 0 1 1 2 3 3 3 3 2 2 2 3 3 4 3 2 2 2 1 3 6 7 7 9 9 10 12 11 10 11 11 8 6 6 5 4 4 5
1 1 1 1 0 2 2 2 3 4 4 4 3 3 2 2 3 3 3 2 2 2 2 3 4 5 7 9 9 10 12 12 10 11 10 7 5 5 5 4 4 5
0 1 1 1 1 2 2 2 3 4 5 4 3 2 2 2 3 3 2 2 3 2 2 3 3 4 7 8 9 10 12 12 10 9 8 6 5 4 4 4 4 5
1 1 1 1 2 3 4 4 4 4 5 4 2 1 2 2 2 3 3 3 3 2 2 3 4 5 7 8 9 10 10 10 9 8 7 7 5 5 5 5 5 7
2 2 1 1 3 3 3 4 5 5 5 4 2 2 3 3 3 3 3 2 3 2 2 3 4 5 7 9 9 9 8 8 8 8 8 7 6 6 7 7 7 8
3 3 2 1 2 2 2 3 5 4 4 4 3 3 3 3 3 3 3 2 2 2 3 3 4 6 8 8 8 8 8 8 8 8 8 8 8 8 8 8 8 9
5 5 4 2 2 1 2 3 4 4 3 3 3 2 2 2 3 3 2 2 2 3 3 4 6 7 7 8 8 8 8 8 9 9 9 9 9 9 9 8 8 9
7 6 5 3 2 1 2 2 2 3 2 2 2 2 2 2 3 3 2 2 3 3 4 5 6 6 6 7 8 8 9 9 9 9 10 10 9 10 9 8 8 9
7 6 5 5 4 4 3 2 2 2 2 2 2 2 2 2 2 2 2 2 3 3 4 5 5 6 7 8 8 9 9 9 10 10 10 10 10 10 9 8 9 8
6 5 5 4 3 3 3 2 1 2 2 3 4 4 3 3 3 3 3 2 3 3 4 5 6 8 9 10 10 10 10 10 10 9 10 10 10 10 9 8 8 7
5 6 6 4 1 1 2 2 1 1 2 3 4 5 4 4 4 4 3 3 3 4 4 5 7 8 10 12 14 13 11 10 9 9 10 10 10 11 10 8 9 8
5 5 6 5 3 2 2 1 1 0 1 3 4 5 5 5 4 4 3 3 3 4 4 6 7 9 11 14 16 17 14 10 8 9 9 10 11 11 11 10 10 10
4 4 5 6 5 4 3 1 1 1 2 3 4 5 5 5 4 4 3 3 3 3 4 6 8 9 12 15 17 18 15 10 8 9 9 10 11 11 11 11 10 10
4 5 6 6 6 5 3 2 2 3 3 4 4 5 5 5 5 4 3 2 3 3 4 6 7 9 12 15 17 17 14 8 8 9 10 10 10 10 11 10 10 11
5 6 6 7 6 5 4 4 4 4 4 4 4 5 6 6 5 4 3 2 3 3 5 6 6 8 11 14 16 16 12 8 8 10 10 10 10 10 10 10 10 11
4 4 5 6 6 6 5 5 4 4 4 5 5 6 7 6 5 4 3 2 3 3 5 5 5 7 10 13 14 14 11 9 9 10 10 11 10 10 9 10 11 12
3 4 5 6 6 6 6 5 4 3 5 5 6 7 7 5 4 4 3 3 3 3 4 4 4 7 10 11 12 13 12 9 9 10 11 11 11 10 9 10 12 13
3 4 5 6 6 6 6 6 5 4 5 6 7 7 7 5 5 3 3 3 4 2 2 3 3 6 10 10 10 12 11 10 9 10 11 11 11 10 10 10 11 11
3 4 5 6 7 8 7 6 6 5 5 6 7 7 7 6 5 3 3 4 4 2 1 2 2 5 9 9 8 10 10 9 9 10 10 11 10 10 11 11 10 10
2 4 5 5 7 8 8 7 6 6 6 6 7 7 7 6 4 4 5 5 4 3 1 3 3 5 7 7 7 9 10 9 9 10 10 10 10 10 10 10 9 9
2 3 4 5 7 8 8 7 7 6 6 6 7 6 6 5 4 4 5 5 4 3 0 3 4 3 5 6 6 8 11 10 9 10 10 10 10 11 10 10 10 9
Wind_Direction
125 130 134 129 124 122 133 149 141 114 89 60 60 65 68 76 80 78 78 83 83 80 78 73 69 63 53 49 45 38 34 32 30 23 14 9 6 6 7 4 5 355
111 123 132 121 121 127 126 109 87 93 91 47 50 59 65 76 80 78 85 92 89 87 85 76 70 61 51 46 36 29 28 25 22 17 9 6 4 4 3 357 3 359
124 133 138 127 126 126 110 98 86 63 48 46 48 52 59 71 82 92 99 94 85 89 87 70 62 53 45 37 23 19 17 10 14 11 360 358 359 0 358 351 359 359
138 142 139 125 112 107 112 132 134 54 33 32 35 49 62 67 92 113 111 103 99 97 90 67 45 37 37 28 13 11 6 360 10 7 351 347 349 353 356 353 355 353
142 149 146 124 94 105 170 78 13 12 10 2 12 49 67 71 100 119 114 108 119 114 106 57 22 15 18 14 7 5 360 355 4 360 345 339 339 348 355 350 349 348
159 183 220 211 171 309 323 10 358 346 349 357 7 27 53 72 97 115 113 99 93 89 72 16 10 7 5 4 2 2 355 347 353 352 343 338 339 344 350 348 350 343
177 149 207 209 191 318 331 360 358 352 353 358 11 26 44 76 101 114 113 89 57 48 31 18 16 7 359 359 360 357 350 345 351 352 345 343 346 344 340 345 350 335
99 94 77 12 332 314 333 1 10 8 356 354 13 40 58 83 103 109 99 65 50 55 45 26 16 3 358 359 359 354 349 349 356 358 354 351 350 344 338 340 338 323
146 105 72 359 333 331 350 3 11 14 360 356 12 53 86 89 88 91 82 61 70 91 70 26 9 3 359 357 356 355 355 360 4 2 0 359 355 350 344 341 333 320
164 144 120 333 324 332 354 359 4 12 5 3 16 48 75 79 72 80 87 83 89 94 72 37 19 7 359 357 357 359 2 5 5 360 356 354 352 349 343 338 330 323
175 172 182 241 299 327 14 12 9 15 12 11 31 57 69 75 74 80 85 79 75 63 54 42 18 6 2 3 5 7 8 5 1 357 351 348 348 345 339 334 327 322
184 187 196 212 255 331 37 34 19 20 22 25 47 68 71 76 83 81 73 71 67 57 50 30 11 9 14 16 15 14 11 7 2 358 351 348 348 342 336 334 329 325
192 192 197 202 181 121 82 61 40 34 41 54 69 78 75 82 93 93 86 86 79 58 42 27 19 24 29 26 21 16 9 4 360 357 352 346 343 338 332 333 331 324
201 195 187 185 170 146 123 101 87 84 97 109 104 98 91 89 97 97 92 94 83 62 40 32 33 37 32 21 14 9 2 359 356 354 353 349 345 342 339 340 337 326
192 184 174 166 146 125 106 89 96 118 128 136 126 115 112 107 107 109 105 95 79 58 34 35 46 45 36 26 16 6 355 352 354 355 358 357 354 353 353 355 351 342
174 176 184 181 155 119 89 63 37 108 135 145 132 127 136 132 126 127 118 100 78 54 40 49 56 50 39 30 21 11 358 349 354 360 1 1 1 1 3 5 359 355
178 182 196 204 197 165 117 76 359 72 145 156 144 140 148 147 140 138 126 104 80 58 61 70 64 49 35 26 18 12 4 355 356 4 3 4 7 7 6 5 0 358
194 189 191 195 188 176 169 185 231 202 182 174 157 146 149 152 152 148 131 104 81 71 85 85 68 45 31 23 14 9 7 5 5 7 5 8 9 5 5 6 359 354
208 204 194 193 198 204 222 246 221 199 192 180 162 151 155 165 164 151 133 98 79 84 96 87 64 38 27 20 11 7 11 15 11 6 5 11 12 4 4 4 355 351
218 211 203 203 213 222 233 236 217 195 181 173 166 165 169 175 169 150 126 94 91 107 107 91 61 32 22 17 10 8 13 16 10 7 7 14 18 11 5 1 355 357
223 210 206 208 211 212 214 216 205 177 170 173 173 176 179 178 167 148 126 109 121 133 121 94 54 22 16 14 10 10 14 12 8 9 10 14 15 10 6 3 1 5
216 210 220 223 216 207 196 192 184 168 172 174 175 180 180 174 163 147 133 134 139 140 128 104 53 14 9 12 15 16 16 12 11 12 12 12 11 6 7 8 6 8
200 206 214 210 202 193 180 176 177 171 170 172 177 180 175 168 163 150 139 149 144 129 128 122 68 10 6 15 23 24 19 12 12 14 12 11 10 6 6 12 13 13
185 193 192 181 177 172 164 166 170 167 170 175 176 176 170 166 165 152 150 158 149 124 81 97 57 360 5 19 30 30 24 11 8 14 11 6 8 8 6 9 16 18
177 180 171 162 164 161 155 159 161 160 166 170 171 172 168 168 173 166 164 171 167 153 83 41 25 357 4 21 34 34 28 15 4 10 9 0 1 7 4 1 2 6
163 180 164 155 160 159 152 151 152 152 158 165 170 171 167 168 178 175 175 185 189 187 224 20 23 9 10 25 37 35 29 21 9 6 5 356 354 1 2 358 354 351